Year,Month,Day,Hour,Minute,Value (Times are PST for temperature in C)
2015,06,12,00,00,11.00
2015,06,12,00,01,11.00
2015,06,12,00,02,11.00
2015,06,12,00,03,10.90
2015,06,12,00,04,10.90
2015,06,12,00,05,10.90
2015,06,12,00,06,10.90
2015,06,12,00,07,10.90
2015,06,12,00,08,10.90
2015,06,12,00,09,10.90
2015,06,12,00,10,10.90
2015,06,12,00,11,10.90
2015,06,12,00,12,10.90
2015,06,12,00,13,10.90
2015,06,12,00,14,10.90
2015,06,12,00,15,10.90
2015,06,12,00,16,10.90
2015,06,12,00,17,10.90
2015,06,12,00,18,10.90
2015,06,12,00,19,10.90
2015,06,12,00,20,10.90
2015,06,12,00,21,10.90
2015,06,12,00,22,10.90
2015,06,12,00,23,10.90
2015,06,12,00,24,10.90
2015,06,12,00,25,10.90
2015,06,12,00,26,10.90
2015,06,12,00,27,10.90
2015,06,12,00,28,10.90
2015,06,12,00,29,10.90
2015,06,12,00,30,10.90
2015,06,12,00,31,10.90
2015,06,12,00,32,10.90
2015,06,12,00,33,10.90
2015,06,12,00,34,10.90
2015,06,12,00,35,10.80
2015,06,12,00,36,10.80
2015,06,12,00,37,10.80
2015,06,12,00,38,10.80
2015,06,12,00,39,10.80
2015,06,12,00,40,10.80
2015,06,12,00,41,10.80
2015,06,12,00,42,10.80
2015,06,12,00,43,10.80
2015,06,12,00,44,10.80
2015,06,12,00,45,10.80
2015,06,12,00,46,10.80
2015,06,12,00,47,10.80
2015,06,12,00,48,10.80
2015,06,12,00,49,10.80
2015,06,12,00,50,10.80
2015,06,12,00,51,10.80
2015,06,12,00,52,10.80
2015,06,12,00,53,10.80
2015,06,12,00,54,10.80
2015,06,12,00,55,10.80
2015,06,12,00,56,10.80
2015,06,12,00,57,10.80
2015,06,12,00,58,10.80
2015,06,12,00,59,10.80
2015,06,12,01,00,10.80
2015,06,12,01,01,10.80
2015,06,12,01,02,10.80
2015,06,12,01,03,10.80
2015,06,12,01,04,10.80
2015,06,12,01,05,10.80
2015,06,12,01,06,10.80
2015,06,12,01,07,10.80
2015,06,12,01,08,10.80
2015,06,12,01,09,10.70
2015,06,12,01,10,10.70
2015,06,12,01,11,10.70
2015,06,12,01,12,10.70
2015,06,12,01,13,10.70
2015,06,12,01,14,10.70
2015,06,12,01,15,10.70
2015,06,12,01,16,10.70
2015,06,12,01,17,10.60
2015,06,12,01,18,10.60
2015,06,12,01,19,10.60
2015,06,12,01,20,10.60
2015,06,12,01,21,10.60
2015,06,12,01,22,10.60
2015,06,12,01,23,10.60
2015,06,12,01,24,10.50
2015,06,12,01,25,10.50
2015,06,12,01,26,10.50
2015,06,12,01,27,10.50
2015,06,12,01,28,10.50
2015,06,12,01,29,10.40
2015,06,12,01,30,10.40
2015,06,12,01,31,10.40
2015,06,12,01,32,10.40
2015,06,12,01,33,10.40
2015,06,12,01,34,10.40
2015,06,12,01,35,10.40
2015,06,12,01,36,10.30
2015,06,12,01,37,10.30
2015,06,12,01,38,10.30
2015,06,12,01,39,10.30
2015,06,12,01,40,10.30
2015,06,12,01,41,10.30
2015,06,12,01,42,10.30
2015,06,12,01,43,10.30
2015,06,12,01,44,10.30
2015,06,12,01,45,10.30
2015,06,12,01,46,10.30
2015,06,12,01,47,10.30
2015,06,12,01,48,10.30
2015,06,12,01,49,10.30
2015,06,12,01,50,10.30
2015,06,12,01,51,10.30
2015,06,12,01,52,10.30
2015,06,12,01,53,10.30
2015,06,12,01,54,10.30
2015,06,12,01,55,10.30
2015,06,12,01,56,10.30
2015,06,12,01,57,10.30
2015,06,12,01,58,10.30
2015,06,12,01,59,10.40
2015,06,12,02,00,10.40
2015,06,12,02,01,10.40
2015,06,12,02,02,10.40
2015,06,12,02,03,10.40
2015,06,12,02,04,10.40
2015,06,12,02,05,10.40
2015,06,12,02,06,10.40
2015,06,12,02,07,10.40
2015,06,12,02,08,10.40
2015,06,12,02,09,10.40
2015,06,12,02,10,10.40
2015,06,12,02,11,10.40
2015,06,12,02,12,10.40
2015,06,12,02,13,10.40
2015,06,12,02,14,10.40
2015,06,12,02,15,10.50
2015,06,12,02,16,10.50
2015,06,12,02,17,10.50
2015,06,12,02,18,10.50
2015,06,12,02,19,10.60
2015,06,12,02,20,10.60
2015,06,12,02,21,10.60
2015,06,12,02,22,10.60
2015,06,12,02,23,10.60
2015,06,12,02,24,10.60
2015,06,12,02,25,10.60
2015,06,12,02,26,10.60
2015,06,12,02,27,10.60
2015,06,12,02,28,10.60
2015,06,12,02,29,10.60
2015,06,12,02,30,10.60
2015,06,12,02,31,10.60
2015,06,12,02,32,10.60
2015,06,12,02,33,10.60
2015,06,12,02,34,10.60
2015,06,12,02,35,10.70
2015,06,12,02,36,10.70
2015,06,12,02,37,10.70
2015,06,12,02,38,10.70
2015,06,12,02,39,10.70
2015,06,12,02,40,10.70
2015,06,12,02,41,10.70
2015,06,12,02,42,10.70
2015,06,12,02,43,10.70
2015,06,12,02,44,10.70
2015,06,12,02,45,10.70
2015,06,12,02,46,10.70
2015,06,12,02,47,10.70
2015,06,12,02,48,10.70
2015,06,12,02,49,10.70
2015,06,12,02,50,10.70
2015,06,12,02,51,10.70
2015,06,12,02,52,10.70
2015,06,12,02,53,10.70
2015,06,12,02,54,10.70
2015,06,12,02,55,10.70
2015,06,12,02,56,10.70
2015,06,12,02,57,10.70
2015,06,12,02,58,10.70
2015,06,12,02,59,10.70
2015,06,12,03,00,10.70
2015,06,12,03,01,10.70
2015,06,12,03,02,10.70
2015,06,12,03,03,10.70
2015,06,12,03,04,10.70
2015,06,12,03,05,10.70
2015,06,12,03,06,10.70
2015,06,12,03,07,10.70
2015,06,12,03,08,10.70
2015,06,12,03,09,10.70
2015,06,12,03,10,10.70
2015,06,12,03,11,10.70
2015,06,12,03,12,10.70
2015,06,12,03,13,10.60
2015,06,12,03,14,10.60
2015,06,12,03,15,10.60
2015,06,12,03,16,10.60
2015,06,12,03,17,10.60
2015,06,12,03,18,10.60
2015,06,12,03,19,10.60
2015,06,12,03,20,10.60
2015,06,12,03,21,10.60
2015,06,12,03,22,10.50
2015,06,12,03,23,10.50
2015,06,12,03,24,10.50
2015,06,12,03,25,10.50
2015,06,12,03,26,10.50
2015,06,12,03,27,10.50
2015,06,12,03,28,10.50
2015,06,12,03,29,10.40
2015,06,12,03,30,10.40
2015,06,12,03,31,10.40
2015,06,12,03,32,10.40
2015,06,12,03,33,10.40
2015,06,12,03,34,10.40
2015,06,12,03,35,10.40
2015,06,12,03,36,10.40
2015,06,12,03,37,10.30
2015,06,12,03,38,10.30
2015,06,12,03,39,10.30
2015,06,12,03,40,10.30
2015,06,12,03,41,10.30
2015,06,12,03,42,10.30
2015,06,12,03,43,10.20
2015,06,12,03,44,10.20
2015,06,12,03,45,10.20
2015,06,12,03,46,10.20
2015,06,12,03,47,10.20
2015,06,12,03,48,10.20
2015,06,12,03,49,10.20
2015,06,12,03,50,10.10
2015,06,12,03,51,10.10
2015,06,12,03,52,10.10
2015,06,12,03,53,10.10
2015,06,12,03,54,10.00
2015,06,12,03,55,10.00
2015,06,12,03,56,10.00
2015,06,12,03,57,10.00
2015,06,12,03,58,9.90
2015,06,12,03,59,9.90
2015,06,12,04,00,9.90
2015,06,12,04,01,9.90
2015,06,12,04,02,9.90
2015,06,12,04,03,9.90
2015,06,12,04,04,9.90
2015,06,12,04,05,9.90
2015,06,12,04,06,9.90
2015,06,12,04,07,9.90
2015,06,12,04,08,9.90
2015,06,12,04,09,9.90
2015,06,12,04,10,9.90
2015,06,12,04,11,9.90
2015,06,12,04,12,9.90
2015,06,12,04,13,9.90
2015,06,12,04,14,9.90
2015,06,12,04,15,9.90
2015,06,12,04,16,9.80
2015,06,12,04,17,9.80
2015,06,12,04,18,9.90
2015,06,12,04,19,9.80
2015,06,12,04,20,9.80
2015,06,12,04,21,9.80
2015,06,12,04,22,9.80
2015,06,12,04,23,9.80
2015,06,12,04,24,9.80
2015,06,12,04,25,9.80
2015,06,12,04,26,9.80
2015,06,12,04,27,9.80
2015,06,12,04,28,9.80
2015,06,12,04,29,9.90
2015,06,12,04,30,9.90
2015,06,12,04,31,9.90
2015,06,12,04,32,9.90
2015,06,12,04,33,9.90
2015,06,12,04,34,9.90
2015,06,12,04,35,9.90
2015,06,12,04,36,10.00
2015,06,12,04,37,10.00
2015,06,12,04,38,10.00
2015,06,12,04,39,10.10
2015,06,12,04,40,10.10
2015,06,12,04,41,10.10
2015,06,12,04,42,10.10
2015,06,12,04,43,10.10
2015,06,12,04,44,10.20
2015,06,12,04,45,10.20
2015,06,12,04,46,10.20
2015,06,12,04,47,10.20
2015,06,12,04,48,10.20
2015,06,12,04,49,10.20
2015,06,12,04,50,10.20
2015,06,12,04,51,10.20
2015,06,12,04,52,10.20
2015,06,12,04,53,10.20
2015,06,12,04,54,10.20
2015,06,12,04,55,10.20
2015,06,12,04,56,10.20
2015,06,12,04,57,10.20
2015,06,12,04,58,10.20
2015,06,12,04,59,10.20
2015,06,12,05,00,10.20
2015,06,12,05,01,10.20
2015,06,12,05,02,10.20
2015,06,12,05,03,10.20
2015,06,12,05,04,10.20
2015,06,12,05,05,10.20
2015,06,12,05,06,10.30
2015,06,12,05,07,10.30
2015,06,12,05,08,10.30
2015,06,12,05,09,10.30
2015,06,12,05,10,10.30
2015,06,12,05,11,10.30
2015,06,12,05,12,10.30
2015,06,12,05,13,10.30
2015,06,12,05,14,10.30
2015,06,12,05,15,10.30
2015,06,12,05,16,10.30
2015,06,12,05,17,10.40
2015,06,12,05,18,10.40
2015,06,12,05,19,10.40
2015,06,12,05,20,10.40
2015,06,12,05,21,10.40
2015,06,12,05,22,10.40
2015,06,12,05,23,10.40
2015,06,12,05,24,10.40
2015,06,12,05,25,10.40
2015,06,12,05,26,10.40
2015,06,12,05,27,10.40
2015,06,12,05,28,10.40
2015,06,12,05,29,10.40
2015,06,12,05,30,10.40
2015,06,12,05,31,10.40
2015,06,12,05,32,10.40
2015,06,12,05,33,10.40
2015,06,12,05,34,10.40
2015,06,12,05,35,10.40
2015,06,12,05,36,10.40
2015,06,12,05,37,10.40
2015,06,12,05,38,10.40
2015,06,12,05,39,10.40
2015,06,12,05,40,10.40
2015,06,12,05,41,10.40
2015,06,12,05,42,10.40
2015,06,12,05,43,10.40
2015,06,12,05,44,10.40
2015,06,12,05,45,10.40
2015,06,12,05,46,10.30
2015,06,12,05,47,10.40
2015,06,12,05,48,10.40
2015,06,12,05,49,10.30
2015,06,12,05,50,10.30
2015,06,12,05,51,10.30
2015,06,12,05,52,10.30
2015,06,12,05,53,10.30
2015,06,12,05,54,10.30
2015,06,12,05,55,10.30
2015,06,12,05,56,10.30
2015,06,12,05,57,10.30
2015,06,12,05,58,10.30
2015,06,12,05,59,10.30
2015,06,12,06,00,10.30
2015,06,12,06,01,10.30
2015,06,12,06,02,10.30
2015,06,12,06,03,10.30
2015,06,12,06,04,10.30
2015,06,12,06,05,10.30
2015,06,12,06,06,10.30
2015,06,12,06,07,10.30
2015,06,12,06,08,10.30
2015,06,12,06,09,10.30
2015,06,12,06,10,10.30
2015,06,12,06,11,10.30
2015,06,12,06,12,10.30
2015,06,12,06,13,10.30
2015,06,12,06,14,10.30
2015,06,12,06,15,10.30
2015,06,12,06,16,10.30
2015,06,12,06,17,10.30
2015,06,12,06,18,10.30
2015,06,12,06,19,10.30
2015,06,12,06,20,10.40
2015,06,12,06,21,10.40
2015,06,12,06,22,10.40
2015,06,12,06,23,10.40
2015,06,12,06,24,10.40
2015,06,12,06,25,10.40
2015,06,12,06,26,10.50
2015,06,12,06,27,10.50
2015,06,12,06,28,10.50
2015,06,12,06,29,10.60
2015,06,12,06,30,10.60
2015,06,12,06,31,10.60
2015,06,12,06,32,10.60
2015,06,12,06,33,10.70
2015,06,12,06,34,10.70
2015,06,12,06,35,10.70
2015,06,12,06,36,10.70
2015,06,12,06,37,10.70
2015,06,12,06,38,10.80
2015,06,12,06,39,10.80
2015,06,12,06,40,10.80
2015,06,12,06,41,10.80
2015,06,12,06,42,10.80
2015,06,12,06,43,10.80
2015,06,12,06,44,10.90
2015,06,12,06,45,10.90
2015,06,12,06,46,10.90
2015,06,12,06,47,10.90
2015,06,12,06,48,11.00
2015,06,12,06,49,11.00
2015,06,12,06,50,11.00
2015,06,12,06,51,11.10
2015,06,12,06,52,11.10
2015,06,12,06,53,11.10
2015,06,12,06,54,11.10
2015,06,12,06,55,11.10
2015,06,12,06,56,11.20
2015,06,12,06,57,11.20
2015,06,12,06,58,11.20
2015,06,12,06,59,11.20
2015,06,12,07,00,11.20
2015,06,12,07,01,11.20
2015,06,12,07,02,11.20
2015,06,12,07,03,11.20
2015,06,12,07,04,11.20
2015,06,12,07,05,11.20
2015,06,12,07,06,11.20
2015,06,12,07,07,11.20
2015,06,12,07,08,11.20
2015,06,12,07,09,11.20
2015,06,12,07,10,11.20
2015,06,12,07,11,11.20
2015,06,12,07,12,11.20
2015,06,12,07,13,11.20
2015,06,12,07,14,11.20
2015,06,12,07,15,11.20
2015,06,12,07,16,11.20
2015,06,12,07,17,11.20
2015,06,12,07,18,11.30
2015,06,12,07,19,11.30
2015,06,12,07,20,11.30
2015,06,12,07,21,11.40
2015,06,12,07,22,11.40
2015,06,12,07,23,11.50
2015,06,12,07,24,11.50
2015,06,12,07,25,11.60
2015,06,12,07,26,11.60
2015,06,12,07,27,11.60
2015,06,12,07,28,11.70
2015,06,12,07,29,11.70
2015,06,12,07,30,11.70
2015,06,12,07,31,11.70
2015,06,12,07,32,11.70
2015,06,12,07,33,11.70
2015,06,12,07,34,11.60
2015,06,12,07,35,11.60
2015,06,12,07,36,11.60
2015,06,12,07,37,11.60
2015,06,12,07,38,11.60
2015,06,12,07,39,11.60
2015,06,12,07,40,11.60
2015,06,12,07,41,11.70
2015,06,12,07,42,11.70
2015,06,12,07,43,11.70
2015,06,12,07,44,11.70
2015,06,12,07,45,11.70
2015,06,12,07,46,11.70
2015,06,12,07,47,11.70
2015,06,12,07,48,11.70
2015,06,12,07,49,11.70
2015,06,12,07,50,11.80
2015,06,12,07,51,11.80
2015,06,12,07,52,11.80
2015,06,12,07,53,11.80
2015,06,12,07,54,11.80
2015,06,12,07,55,11.80
2015,06,12,07,56,11.90
2015,06,12,07,57,11.90
2015,06,12,07,58,11.90
2015,06,12,07,59,11.90
2015,06,12,08,00,12.00
2015,06,12,08,01,12.00
2015,06,12,08,02,12.10
2015,06,12,08,03,12.10
2015,06,12,08,04,12.20
2015,06,12,08,05,12.20
2015,06,12,08,06,12.20
2015,06,12,08,07,12.30
2015,06,12,08,08,12.30
2015,06,12,08,09,12.30
2015,06,12,08,10,12.40
2015,06,12,08,11,12.50
2015,06,12,08,12,12.50
2015,06,12,08,13,12.60
2015,06,12,08,14,12.60
2015,06,12,08,15,12.70
2015,06,12,08,16,12.70
2015,06,12,08,17,12.70
2015,06,12,08,18,12.60
2015,06,12,08,19,12.60
2015,06,12,08,20,12.60
2015,06,12,08,21,12.60
2015,06,12,08,22,12.60
2015,06,12,08,23,12.60
2015,06,12,08,24,12.60
2015,06,12,08,25,12.60
2015,06,12,08,26,12.60
2015,06,12,08,27,12.60
2015,06,12,08,28,12.60
2015,06,12,08,29,12.60
2015,06,12,08,30,12.60
2015,06,12,08,31,12.70
2015,06,12,08,32,12.70
2015,06,12,08,33,12.80
2015,06,12,08,34,12.90
2015,06,12,08,35,12.90
2015,06,12,08,36,13.00
2015,06,12,08,37,13.10
2015,06,12,08,38,13.20
2015,06,12,08,39,13.20
2015,06,12,08,40,13.20
2015,06,12,08,41,13.20
2015,06,12,08,42,13.20
2015,06,12,08,43,13.20
2015,06,12,08,44,13.20
2015,06,12,08,45,13.20
2015,06,12,08,46,13.30
2015,06,12,08,47,13.30
2015,06,12,08,48,13.20
2015,06,12,08,49,13.20
2015,06,12,08,50,13.10
2015,06,12,08,51,13.10
2015,06,12,08,52,13.00
2015,06,12,08,53,12.90
2015,06,12,08,54,12.90
2015,06,12,08,55,12.90
2015,06,12,08,56,12.90
2015,06,12,08,57,13.00
2015,06,12,08,58,13.00
2015,06,12,08,59,13.10
2015,06,12,09,00,13.20
2015,06,12,09,01,13.30
2015,06,12,09,02,13.40
2015,06,12,09,03,13.50
2015,06,12,09,04,13.60
2015,06,12,09,05,13.70
2015,06,12,09,06,13.80
2015,06,12,09,07,13.80
2015,06,12,09,08,13.80
2015,06,12,09,09,13.80
2015,06,12,09,10,13.80
2015,06,12,09,11,13.80
2015,06,12,09,12,13.80
2015,06,12,09,13,13.80
2015,06,12,09,14,13.80
2015,06,12,09,15,13.80
2015,06,12,09,16,13.70
2015,06,12,09,17,13.70
2015,06,12,09,18,13.70
2015,06,12,09,19,13.70
2015,06,12,09,20,13.80
2015,06,12,09,21,13.80
2015,06,12,09,22,14.00
2015,06,12,09,23,14.00
2015,06,12,09,24,14.10
2015,06,12,09,25,14.20
2015,06,12,09,26,14.30
2015,06,12,09,27,14.40
2015,06,12,09,28,14.50
2015,06,12,09,29,14.60
2015,06,12,09,30,14.70
2015,06,12,09,31,14.80
2015,06,12,09,32,14.90
2015,06,12,09,33,15.00
2015,06,12,09,34,15.00
2015,06,12,09,35,15.00
2015,06,12,09,36,15.10
2015,06,12,09,37,15.10
2015,06,12,09,38,15.20
2015,06,12,09,39,15.20
2015,06,12,09,40,15.20
2015,06,12,09,41,15.20
2015,06,12,09,42,15.20
2015,06,12,09,43,15.30
2015,06,12,09,44,15.30
2015,06,12,09,45,15.30
2015,06,12,09,46,15.30
2015,06,12,09,47,15.30
2015,06,12,09,48,15.30
2015,06,12,09,49,15.30
2015,06,12,09,50,15.40
2015,06,12,09,51,15.40
2015,06,12,09,52,15.50
2015,06,12,09,53,15.60
2015,06,12,09,54,15.60
2015,06,12,09,55,15.60
2015,06,12,09,56,15.60
2015,06,12,09,57,15.60
2015,06,12,09,58,15.60
2015,06,12,09,59,15.70
2015,06,12,10,00,15.60
2015,06,12,10,01,15.60
2015,06,12,10,02,15.60
2015,06,12,10,03,15.60
2015,06,12,10,04,15.50
2015,06,12,10,05,15.50
2015,06,12,10,06,15.50
2015,06,12,10,07,15.60
2015,06,12,10,08,15.60
2015,06,12,10,09,15.70
2015,06,12,10,10,15.90
2015,06,12,10,11,16.00
2015,06,12,10,12,16.20
2015,06,12,10,13,16.30
2015,06,12,10,14,16.50
2015,06,12,10,15,16.60
2015,06,12,10,16,16.70
2015,06,12,10,17,16.80
2015,06,12,10,18,16.80
2015,06,12,10,19,16.80
2015,06,12,10,20,16.80
2015,06,12,10,21,16.80
2015,06,12,10,22,16.80
2015,06,12,10,23,16.80
2015,06,12,10,24,16.80
2015,06,12,10,25,16.90
2015,06,12,10,26,16.90
2015,06,12,10,27,17.00
2015,06,12,10,28,17.10
2015,06,12,10,29,17.10
2015,06,12,10,30,17.10
2015,06,12,10,31,17.10
2015,06,12,10,32,17.10
2015,06,12,10,33,17.10
2015,06,12,10,34,17.20
2015,06,12,10,35,17.30
2015,06,12,10,36,17.30
2015,06,12,10,37,17.40
2015,06,12,10,38,17.40
2015,06,12,10,39,17.40
2015,06,12,10,40,17.40
2015,06,12,10,41,17.50
2015,06,12,10,42,17.50
2015,06,12,10,43,17.50
2015,06,12,10,44,17.50
2015,06,12,10,45,17.40
2015,06,12,10,46,17.30
2015,06,12,10,47,17.20
2015,06,12,10,48,17.10
2015,06,12,10,49,17.10
2015,06,12,10,50,17.10
2015,06,12,10,51,17.10
2015,06,12,10,52,17.10
2015,06,12,10,53,17.20
2015,06,12,10,54,17.20
2015,06,12,10,55,17.20
2015,06,12,10,56,17.30
2015,06,12,10,57,17.40
2015,06,12,10,58,17.50
2015,06,12,10,59,17.60
2015,06,12,11,00,17.70
2015,06,12,11,01,17.80
2015,06,12,11,02,17.80
2015,06,12,11,03,17.90
2015,06,12,11,04,17.90
2015,06,12,11,05,17.90
2015,06,12,11,06,17.80
2015,06,12,11,07,17.80
2015,06,12,11,08,17.70
2015,06,12,11,09,17.70
2015,06,12,11,10,17.70
2015,06,12,11,11,17.70
2015,06,12,11,12,17.70
2015,06,12,11,13,17.80
2015,06,12,11,14,17.80
2015,06,12,11,15,17.90
2015,06,12,11,16,17.90
2015,06,12,11,17,17.90
2015,06,12,11,18,18.00
2015,06,12,11,19,18.00
2015,06,12,11,20,18.10
2015,06,12,11,21,18.20
2015,06,12,11,22,18.30
2015,06,12,11,23,18.40
2015,06,12,11,24,18.50
2015,06,12,11,25,18.50
2015,06,12,11,26,18.60
2015,06,12,11,27,18.60
2015,06,12,11,28,18.60
2015,06,12,11,29,18.60
2015,06,12,11,30,18.70
2015,06,12,11,31,18.70
2015,06,12,11,32,18.70
2015,06,12,11,33,18.80
2015,06,12,11,34,18.90
2015,06,12,11,35,18.90
2015,06,12,11,36,19.00
2015,06,12,11,37,19.00
2015,06,12,11,38,19.10
2015,06,12,11,39,19.20
2015,06,12,11,40,19.30
2015,06,12,11,41,19.30
2015,06,12,11,42,19.30
2015,06,12,11,43,19.30
2015,06,12,11,44,19.40
2015,06,12,11,45,19.40
2015,06,12,11,46,19.50
2015,06,12,11,47,19.50
2015,06,12,11,48,19.50
2015,06,12,11,49,19.50
2015,06,12,11,50,19.50
2015,06,12,11,51,19.50
2015,06,12,11,52,19.40
2015,06,12,11,53,19.40
2015,06,12,11,54,19.40
2015,06,12,11,55,19.30
2015,06,12,11,56,19.30
2015,06,12,11,57,19.40
2015,06,12,11,58,19.40
2015,06,12,11,59,19.50
2015,06,12,12,00,19.60
2015,06,12,12,01,19.60
2015,06,12,12,02,19.70
2015,06,12,12,03,19.70
2015,06,12,12,04,19.50
2015,06,12,12,05,19.50
2015,06,12,12,06,19.60
2015,06,12,12,07,19.60
2015,06,12,12,08,19.70
2015,06,12,12,09,19.70
2015,06,12,12,10,19.80
2015,06,12,12,11,19.80
2015,06,12,12,12,19.80
2015,06,12,12,13,19.80
2015,06,12,12,14,19.70
2015,06,12,12,15,19.70
2015,06,12,12,16,19.70
2015,06,12,12,17,19.70
2015,06,12,12,18,19.70
2015,06,12,12,19,19.70
2015,06,12,12,20,19.70
2015,06,12,12,21,19.70
2015,06,12,12,22,19.70
2015,06,12,12,23,19.80
2015,06,12,12,24,19.80
2015,06,12,12,25,19.90
2015,06,12,12,26,20.00
2015,06,12,12,27,20.00
2015,06,12,12,28,20.10
2015,06,12,12,29,20.10
2015,06,12,12,30,20.30
2015,06,12,12,31,20.30
2015,06,12,12,32,20.50
2015,06,12,12,33,20.60
2015,06,12,12,34,20.70
2015,06,12,12,35,20.80
2015,06,12,12,36,20.80
2015,06,12,12,37,20.80
2015,06,12,12,38,20.80
2015,06,12,12,39,20.70
2015,06,12,12,40,20.60
2015,06,12,12,41,20.50
2015,06,12,12,42,20.50
2015,06,12,12,43,20.60
2015,06,12,12,44,20.60
2015,06,12,12,45,20.60
2015,06,12,12,46,20.50
2015,06,12,12,47,20.40
2015,06,12,12,48,20.40
2015,06,12,12,49,20.30
2015,06,12,12,50,20.30
2015,06,12,12,51,20.20
2015,06,12,12,52,20.20
2015,06,12,12,53,20.30
2015,06,12,12,54,20.30
2015,06,12,12,55,20.40
2015,06,12,12,56,20.60
2015,06,12,12,57,20.60
2015,06,12,12,58,20.60
2015,06,12,12,59,20.60
2015,06,12,13,00,20.60
2015,06,12,13,01,20.60
2015,06,12,13,02,20.60
2015,06,12,13,03,20.60
2015,06,12,13,04,20.60
2015,06,12,13,05,20.70
2015,06,12,13,06,20.70
2015,06,12,13,07,20.80
2015,06,12,13,08,20.90
2015,06,12,13,09,20.90
2015,06,12,13,10,20.90
2015,06,12,13,11,20.90
2015,06,12,13,12,20.90
2015,06,12,13,13,20.90
2015,06,12,13,14,20.90
2015,06,12,13,15,20.80
2015,06,12,13,16,20.70
2015,06,12,13,17,20.50
2015,06,12,13,18,20.20
2015,06,12,13,19,20.00
2015,06,12,13,20,19.80
2015,06,12,13,21,19.60
2015,06,12,13,22,19.50
2015,06,12,13,23,19.40
2015,06,12,13,24,19.40
2015,06,12,13,25,19.40
2015,06,12,13,26,19.30
2015,06,12,13,27,19.30
2015,06,12,13,28,19.30
2015,06,12,13,29,19.30
2015,06,12,13,30,19.40
2015,06,12,13,31,19.40
2015,06,12,13,32,19.40
2015,06,12,13,33,19.50
2015,06,12,13,34,19.60
2015,06,12,13,35,19.60
2015,06,12,13,36,19.60
2015,06,12,13,37,19.50
2015,06,12,13,38,19.50
2015,06,12,13,39,19.40
2015,06,12,13,40,19.30
2015,06,12,13,41,19.30
2015,06,12,13,42,19.20
2015,06,12,13,43,19.10
2015,06,12,13,44,19.10
2015,06,12,13,45,19.00
2015,06,12,13,46,19.00
2015,06,12,13,47,18.90
2015,06,12,13,48,18.90
2015,06,12,13,49,18.90
2015,06,12,13,50,18.90
2015,06,12,13,51,18.90
2015,06,12,13,52,18.90
2015,06,12,13,53,18.90
2015,06,12,13,54,18.90
2015,06,12,13,55,19.00
2015,06,12,13,56,19.00
2015,06,12,13,57,19.10
2015,06,12,13,58,19.10
2015,06,12,13,59,19.10
2015,06,12,14,00,19.20
2015,06,12,14,01,19.30
2015,06,12,14,02,19.30
2015,06,12,14,03,19.30
2015,06,12,14,04,19.30
2015,06,12,14,05,19.30
2015,06,12,14,06,19.30
2015,06,12,14,07,19.30
2015,06,12,14,08,19.30
2015,06,12,14,09,19.20
2015,06,12,14,10,19.10
2015,06,12,14,11,19.00
2015,06,12,14,12,18.90
2015,06,12,14,13,18.90
2015,06,12,14,14,18.80
2015,06,12,14,15,18.80
2015,06,12,14,16,18.70
2015,06,12,14,17,18.70
2015,06,12,14,18,18.80
2015,06,12,14,19,18.80
2015,06,12,14,20,18.80
2015,06,12,14,21,18.90
2015,06,12,14,22,18.90
2015,06,12,14,23,19.00
2015,06,12,14,24,19.10
2015,06,12,14,25,19.20
2015,06,12,14,26,19.20
2015,06,12,14,27,19.20
2015,06,12,14,28,19.10
2015,06,12,14,29,18.90
2015,06,12,14,30,18.70
2015,06,12,14,31,18.60
2015,06,12,14,32,18.50
2015,06,12,14,33,18.50
2015,06,12,14,34,18.60
2015,06,12,14,35,18.70
2015,06,12,14,36,18.70
2015,06,12,14,37,18.80
2015,06,12,14,38,18.90
2015,06,12,14,39,19.00
2015,06,12,14,40,19.10
2015,06,12,14,41,19.20
2015,06,12,14,42,19.20
2015,06,12,14,43,19.10
2015,06,12,14,44,19.00
2015,06,12,14,45,19.00
2015,06,12,14,46,18.90
2015,06,12,14,47,19.00
2015,06,12,14,48,19.00
2015,06,12,14,49,19.10
2015,06,12,14,50,19.10
2015,06,12,14,51,19.10
2015,06,12,14,52,19.10
2015,06,12,14,53,19.10
2015,06,12,14,54,19.20
2015,06,12,14,55,19.20
2015,06,12,14,56,19.20
2015,06,12,14,57,19.20
2015,06,12,14,58,19.20
2015,06,12,14,59,19.20
2015,06,12,15,00,19.20
2015,06,12,15,01,19.40
2015,06,12,15,02,19.50
2015,06,12,15,03,19.60
2015,06,12,15,04,19.70
2015,06,12,15,05,19.80
2015,06,12,15,06,19.80
2015,06,12,15,07,19.70
2015,06,12,15,08,19.60
2015,06,12,15,09,19.40
2015,06,12,15,10,19.40
2015,06,12,15,11,19.40
2015,06,12,15,12,19.40
2015,06,12,15,13,19.40
2015,06,12,15,14,19.30
2015,06,12,15,15,19.30
2015,06,12,15,16,19.30
2015,06,12,15,17,19.20
2015,06,12,15,18,19.20
2015,06,12,15,19,19.20
2015,06,12,15,20,19.30
2015,06,12,15,21,19.30
2015,06,12,15,22,19.30
2015,06,12,15,23,19.40
2015,06,12,15,24,19.40
2015,06,12,15,25,19.30
2015,06,12,15,26,19.30
2015,06,12,15,27,19.30
2015,06,12,15,28,19.30
2015,06,12,15,29,19.40
2015,06,12,15,30,19.40
2015,06,12,15,31,19.60
2015,06,12,15,32,19.70
2015,06,12,15,33,19.80
2015,06,12,15,34,19.80
2015,06,12,15,35,19.80
2015,06,12,15,36,19.80
2015,06,12,15,37,19.80
2015,06,12,15,38,19.80
2015,06,12,15,39,19.90
2015,06,12,15,40,19.90
2015,06,12,15,41,20.00
2015,06,12,15,42,20.10
2015,06,12,15,43,20.00
2015,06,12,15,44,19.90
2015,06,12,15,45,19.70
2015,06,12,15,46,19.60
2015,06,12,15,47,19.50
2015,06,12,15,48,19.40
2015,06,12,15,49,19.40
2015,06,12,15,50,19.50
2015,06,12,15,51,19.60
2015,06,12,15,52,19.70
2015,06,12,15,53,19.70
2015,06,12,15,54,19.80
2015,06,12,15,55,19.90
2015,06,12,15,56,20.00
2015,06,12,15,57,20.10
2015,06,12,15,58,20.20
2015,06,12,15,59,20.10
2015,06,12,16,00,20.00
2015,06,12,16,01,19.90
2015,06,12,16,02,19.80
2015,06,12,16,03,19.80
2015,06,12,16,04,19.80
2015,06,12,16,05,19.80
2015,06,12,16,06,19.80
2015,06,12,16,07,19.90
2015,06,12,16,08,19.90
2015,06,12,16,09,19.90
2015,06,12,16,10,19.90
2015,06,12,16,11,19.80
2015,06,12,16,12,19.70
2015,06,12,16,13,19.60
2015,06,12,16,14,19.50
2015,06,12,16,15,19.40
2015,06,12,16,16,19.30
2015,06,12,16,17,19.30
2015,06,12,16,18,19.30
2015,06,12,16,19,19.20
2015,06,12,16,20,19.20
2015,06,12,16,21,19.20
2015,06,12,16,22,19.20
2015,06,12,16,23,19.20
2015,06,12,16,24,19.20
2015,06,12,16,25,19.20
2015,06,12,16,26,19.20
2015,06,12,16,27,19.20
2015,06,12,16,28,19.20
2015,06,12,16,29,19.20
2015,06,12,16,30,19.30
2015,06,12,16,31,19.40
2015,06,12,16,32,19.50
2015,06,12,16,33,19.60
2015,06,12,16,34,19.60
2015,06,12,16,35,19.70
2015,06,12,16,36,19.80
2015,06,12,16,37,19.90
2015,06,12,16,38,19.90
2015,06,12,16,39,19.90
2015,06,12,16,40,20.00
2015,06,12,16,41,20.00
2015,06,12,16,42,20.00
2015,06,12,16,43,19.90
2015,06,12,16,44,19.90
2015,06,12,16,45,19.80
2015,06,12,16,46,19.70
2015,06,12,16,47,19.70
2015,06,12,16,48,19.70
2015,06,12,16,49,19.80
2015,06,12,16,50,19.80
2015,06,12,16,51,19.80
2015,06,12,16,52,19.80
2015,06,12,16,53,19.80
2015,06,12,16,54,19.80
2015,06,12,16,55,19.70
2015,06,12,16,56,19.50
2015,06,12,16,57,19.40
2015,06,12,16,58,19.30
2015,06,12,16,59,19.30
2015,06,12,17,00,19.30
2015,06,12,17,01,19.30
2015,06,12,17,02,19.30
2015,06,12,17,03,19.40
2015,06,12,17,04,19.40
2015,06,12,17,05,19.40
2015,06,12,17,06,19.40
2015,06,12,17,07,19.40
2015,06,12,17,08,19.40
2015,06,12,17,09,19.30
2015,06,12,17,10,19.10
2015,06,12,17,11,19.00
2015,06,12,17,12,18.90
2015,06,12,17,13,18.90
2015,06,12,17,14,18.80
2015,06,12,17,15,18.80
2015,06,12,17,16,18.80
2015,06,12,17,17,18.80
2015,06,12,17,18,18.80
2015,06,12,17,19,18.90
2015,06,12,17,20,18.90
2015,06,12,17,21,18.90